Theta_e
304 297 294 294 297 300 302 301 300 300 300 299 299 297 295 295 296 299 300 302 303 299 297 297 297 297 298 299 300 302 303 303 302 302 303 304 305 306 307 306 305 306 306 311 310 309 308 308 308 308 307 307 307 306 306 307 307 308 310 311 312 314 313 314 314 316 317 317 317 318 317 317 318 318 319 319 320 320 319 319 318 316 315 315 314 313
301 296 296 299 300 302 302 303 302 300 300 298 296 295 294 296 294 298 299 302 303 298 296 297 296 296 297 299 300 302 302 301 302 302 303 304 305 306 305 305 306 305 309 309 307 307 306 305 305 305 305 304 303 303 303 304 306 307 308 309 310 312 312 312 313 314 315 316 316 316 316 316 317 317 316 316 317 317 318 317 316 314 314 314 312 311
295 294 298 301 303 303 303 301 300 298 297 297 295 295 294 295 298 299 300 301 300 296 294 297 294 295 297 299 301 301 302 303 304 305 305 305 305 305 305 305 305 306 306 305 305 305 304 304 303 303 302 302 302 302 302 303 304 305 306 308 309 311 311 311 311 312 313 314 316 315 315 316 315 317 317 317 316 316 316 315 314 313 312 312 310 310
294 298 301 303 303 301 300 300 298 297 297 295 295 293 292 296 294 292 298 297 297 296 294 296 294 295 298 300 302 303 303 303 306 306 306 307 303 303 303 304 305 304 304 303 302 302 302 302 301 301 300 300 301 300 301 302 302 303 304 305 307 309 310 310 310 310 312 313 314 315 315 315 315 314 314 314 314 313 313 312 311 312 311 311 309 309
297 302 302 302 301 300 297 298 297 295 294 297 297 295 294 295 296 295 295 297 298 298 299 296 294 296 300 298 299 301 304 303 304 305 304 304 305 306 306 305 304 303 302 301 301 301 300 300 300 299 299 300 299 299 299 300 301 302 303 304 305 307 308 309 309 309 309 310 311 312 310 310 311 309 308 309 309 309 309 309 309 309 310 310 308 308
297 302 301 299 299 298 297 295 296 297 293 295 298 297 297 297 296 296 296 294 293 293 294 294 288 291 297 298 299 302 303 303 306 303 302 302 303 303 303 303 303 303 302 300 300 299 299 299 299 298 298 298 298 298 298 300 301 301 302 303 305 306 307 307 308 308 308 308 307 307 306 305 305 305 305 304 305 306 306 306 309 309 309 309 308 308
298 301 300 299 299 298 297 295 298 298 294 293 295 300 299 297 296 295 294 294 288 287 294 296 287 285 296 296 299 301 301 301 304 301 301 301 302 302 301 300 300 301 300 300 299 299 298 297 297 297 296 296 296 297 298 299 300 300 301 302 303 303 304 306 305 307 306 306 306 306 306 306 305 304 306 307 308 307 308 308 307 307 307 308 307 307
298 298 297 297 296 296 296 294 298 298 294 292 298 299 298 296 294 295 294 292 290 295 296 295 293 287 288 295 301 300 299 301 299 299 300 300 300 299 299 299 299 299 299 298 297 297 297 296 296 295 296 296 296 297 297 298 299 299 299 300 301 302 302 303 304 304 305 304 305 305 305 305 304 304 304 306 305 306 306 306 306 306 305 305 306 306
297 296 296 296 296 295 294 297 303 300 296 295 296 297 295 295 294 294 293 291 292 290 287 293 295 288 289 297 300 300 297 298 296 297 298 299 299 298 298 299 299 298 297 297 296 295 295 295 295 295 295 295 296 296 296 297 297 298 298 298 298 299 300 301 302 303 304 304 303 304 304 303 305 304 304 305 305 304 304 303 304 304 304 304 304 305
298 299 300 299 297 294 299 298 299 300 294 299 296 297 296 296 296 294 291 291 291 288 285 291 293 287 289 297 298 298 297 295 295 296 297 299 298 298 298 298 297 297 297 296 296 295 295 295 295 295 295 295 295 296 297 297 297 297 297 296 296 297 298 298 299 301 302 303 303 302 303 303 303 304 304 304 303 303 303 302 302 302 302 302 302 303
297 296 298 297 297 299 297 295 297 299 297 296 298 295 295 295 294 294 292 291 288 284 288 294 294 292 286 294 297 297 297 296 295 296 297 298 297 297 297 296 296 295 294 294 294 294 294 295 294 295 294 294 294 295 295 296 297 297 296 296 295 295 296 297 298 299 299 301 301 301 302 302 301 302 303 302 302 302 302 301 301 301 301 301 301 301
297 296 295 298 300 298 299 296 295 296 297 297 293 292 292 292 293 290 289 291 285 284 289 292 294 294 284 291 297 297 297 298 297 296 296 296 296 296 295 295 295 294 294 294 293 292 293 293 293 293 293 293 293 293 294 295 296 295 295 295 294 294 295 296 296 297 297 298 299 300 300 300 301 301 301 300 301 301 301 301 301 301 301 300 301 300
292 295 298 300 297 298 296 294 295 295 295 294 293 291 287 286 287 284 288 283 285 285 287 290 292 288 289 293 297 300 299 298 298 298 296 296 295 294 294 294 294 294 293 293 292 292 292 291 291 291 292 292 292 292 293 293 294 294 294 294 294 293 294 294 295 295 296 296 296 296 297 298 299 299 300 300 300 301 300 300 300 300 300 300 299 299
292 299 298 298 297 298 298 291 293 290 292 292 290 289 286 282 282 279 283 286 285 289 288 289 293 286 292 294 300 299 300 297 297 298 298 297 296 294 294 294 293 293 292 292 292 291 291 291 291 291 291 291 291 291 292 292 293 293 293 293 293 293 294 294 294 294 294 294 295 295 296 296 297 297 298 298 299 299 300 300 300 300 300 300 300 299
285 287 294 296 294 299 297 297 298 296 293 293 297 294 289 287 282 278 281 279 281 284 289 290 287 286 286 292 300 302 299 297 297 297 297 296 295 294 293 293 292 292 291 292 291 291 290 291 291 291 291 291 291 291 291 291 292 292 292 292 292 292 293 293 293 294 293 293 294 294 295 295 295 295 296 296 297 297 298 299 299 299 299 299 299 300
290 289 296 300 298 298 297 300 302 298 295 295 295 295 289 288 291 283 286 285 285 285 285 287 286 292 292 300 300 301 298 296 296 295 295 293 293 293 292 291 291 290 290 291 291 290 290 290 290 290 290 290 290 290 291 291 291 291 291 291 291 291 292 292 292 293 293 294 293 293 293 293 294 294 295 295 296 296 297 297 297 297 298 298 299 299
290 287 299 298 296 297 298 301 298 299 287 292 292 287 290 296 293 287 287 288 286 285 282 289 288 292 298 298 300 301 296 294 294 294 293 292 292 292 290 290 289 290 290 290 290 289 289 289 289 290 290 290 290 290 290 290 291 291 291 291 290 291 291 291 292 292 292 293 293 293 293 292 293 293 293 293 294 294 295 296 296 296 297 297 298 298
287 288 298 296 294 298 295 297 298 297 299 292 286 291 293 298 295 289 282 285 284 280 281 287 284 287 288 284 294 294 293 292 293 292 292 291 291 289 289 288 288 288 288 288 289 289 289 289 289 289 290 289 289 289 289 289 290 291 291 291 290 290 290 291 291 291 291 291 292 292 292 292 292 292 292 293 293 293 294 294 295 295 295 296 297 297
296 286 293 298 299 295 295 295 294 298 298 293 291 296 289 285 284 288 285 277 278 278 280 284 287 287 288 288 293 293 291 291 291 291 290 290 289 288 287 287 288 288 288 288 288 288 288 288 288 288 288 289 289 289 289 289 290 290 290 290 291 290 290 290 291 291 291 291 291 291 291 291 291 292 292 292 292 293 292 292 293 293 294 295 295 295
297 286 289 297 296 295 295 294 287 292 295 295 295 292 297 290 286 284 286 285 284 278 279 279 285 282 292 292 295 295 294 292 291 290 289 288 288 288 288 287 287 287 287 288 288 288 288 288 287 287 287 288 288 288 289 289 289 288 289 289 289 290 290 290 290 290 290 291 290 290 290 290 290 291 291 291 292 291 291 291 291 291 292 293 293 293
289 295 283 292 293 295 288 293 289 292 289 288 288 288 291 288 292 291 290 286 283 280 280 279 278 284 291 296 295 294 294 294 292 289 288 287 286 286 286 286 286 286 287 287 287 287 287 287 287 287 288 288 289 289 289 289 288 288 288 288 289 288 288 288 289 289 289 290 290 289 289 289 289 289 289 290 291 290 290 291 291 291 291 291 292 292
289 290 284 287 289 288 291 297 296 295 295 292 291 288 290 287 285 281 279 290 286 283 280 279 277 286 293 294 295 293 293 292 292 288 287 286 286 286 287 286 286 286 286 286 287 287 287 287 287 287 288 288 288 288 288 288 288 287 287 288 288 288 288 288 288 288 289 289 290 289 289 289 289 289 289 288 288 288 289 289 290 291 291 290 291 291
295 291 288 285 288 289 293 297 300 299 298 296 294 290 293 291 290 284 278 282 286 286 287 284 281 284 291 292 292 292 291 290 290 289 287 286 286 286 286 285 286 285 286 286 286 286 287 287 287 287 287 287 287 287 287 287 287 287 287 287 287 287 287 288 288 289 289 289 288 288 288 288 288 288 288 288 288 287 288 288 288 290 289 290 290 290
293 287 285 286 290 293 295 297 298 298 297 294 294 295 293 288 290 287 285 285 281 282 281 282 279 284 292 290 289 289 289 289 290 290 288 287 287 286 286 286 286 286 286 286 287 287 287 287 287 287 287 287 287 288 287 287 287 287 286 286 286 286 287 287 288 288 288 288 288 288 287 287 287 287 286 286 287 287 288 288 288 289 288 289 289 288
287 289 287 281 282 284 287 290 292 294 294 289 288 290 290 291 290 289 287 288 281 282 283 280 275 283 290 288 288 288 289 288 288 288 289 287 287 286 286 286 286 285 286 286 286 286 286 286 286 286 287 287 287 287 287 287 287 287 287 286 286 286 287 287 287 287 287 287 287 287 287 287 286 286 286 286 287 287 287 288 288 288 288 288 288 289
289 287 285 279 275 274 274 276 279 283 285 288 287 289 290 289 288 286 282 284 279 283 285 280 280 286 288 289 288 288 288 288 288 288 288 288 287 286 285 286 285 286 285 285 286 286 285 286 286 286 286 287 286 286 287 287 287 287 286 286 286 285 286 287 287 287 287 287 287 287 286 286 286 286 286 286 286 286 287 287 287 287 287 288 287 288
288 288 287 285 282 279 282 284 289 289 287 283 285 287 287 289 289 288 285 281 277 280 280 282 283 283 286 288 289 289 288 289 286 286 285 286 285 286 286 286 286 285 285 285 285 286 286 286 286 286 286 286 286 287 287 287 287 286 286 286 286 286 286 286 287 286 286 286 286 286 285 285 285 286 286 286 286 287 287 287 287 287 286 287 287 287
287 285 286 286 285 285 287 286 288 288 284 285 284 285 287 286 287 285 282 279 285 280 275 283 284 282 283 287 288 289 289 289 289 286 286 285 284 284 285 285 285 284 285 285 285 285 285 285 286 286 286 286 286 287 287 287 287 287 286 286 286 285 285 287 286 285 286 285 285 285 285 285 286 286 286 286 286 286 286 286 287 287 287 287 286 286
285 281 284 285 283 285 286 286 288 287 286 285 285 284 284 285 285 282 282 284 283 279 276 282 284 281 284 286 288 289 290 290 288 287 287 287 287 286 285 285 285 285 285 285 285 286 285 285 286 286 286 286 286 286 286 286 287 287 287 286 286 286 285 285 285 284 285 284 284 284 285 285 286 286 285 285 285 285 285 285 286 287 287 286 286 287
286 282 284 284 283 284 285 285 286 285 284 284 283 284 284 284 283 283 283 284 283 281 283 283 283 282 285 286 288 289 290 288 287 287 286 285 285 285 285 285 285 285 285 284 285 285 285 286 286 285 286 286 286 285 286 286 286 286 286 286 286 286 285 285 284 284 284 283 283 284 284 285 285 285 285 285 284 284 284 284 285 286 286 286 286 286
286 280 285 282 280 280 283 285 285 284 282 280 282 283 283 283 283 283 283 283 284 282 283 283 282 281 287 289 287 287 288 287 286 285 284 284 285 284 284 284 285 285 286 286 285 285 285 286 286 286 285 286 286 286 286 286 286 287 286 286 286 285 285 285 283 283 283 283 284 284 284 284 284 284 284 284 284 283 283 283 284 285 285 285 285 285
286 281 285 281 277 277 281 281 282 282 281 280 279 280 281 281 279 281 280 283 281 279 281 281 279 280 285 285 286 286 285 284 283 283 283 283 283 283 282 282 283 284 285 286 286 286 285 285 285 285 285 285 286 286 286 286 286 286 286 286 286 286 285 284 283 283 283 283 283 283 283 283 283 283 283 283 282 282 281 282 283 284 285 285 285 284
283 281 279 279 275 274 279 280 279 279 277 274 275 278 280 281 282 282 283 284 283 283 279 277 278 284 282 286 284 284 281 280 282 282 282 282 282 282 283 283 284 284 284 285 286 286 285 285 285 285 285 285 286 286 286 287 286 286 286 286 286 286 284 283 283 283 283 283 283 283 283 283 282 282 282 282 281 281 280 280 281 282 284 284 284 284
283 281 278 280 273 274 278 278 278 274 267 269 281 284 283 280 281 279 279 281 283 284 281 283 282 283 284 284 283 280 279 280 281 282 283 283 282 282 282 282 283 283 284 285 286 287 287 286 286 286 286 286 287 287 287 287 286 287 287 286 286 285 284 283 283 283 282 282 282 282 282 282 282 281 281 281 280 280 279 279 279 281 283 284 284 283
279 279 278 280 275 273 276 276 272 266 268 279 283 284 284 282 281 280 280 281 282 282 282 283 284 284 285 283 281 281 281 282 282 282 282 283 283 283 283 283 283 284 284 285 286 287 287 287 286 286 286 286 286 287 287 287 287 287 287 286 285 284 283 283 282 282 282 281 281 281 281 281 281 281 281 280 280 279 278 278 278 279 281 282 282 281
279 278 278 276 277 276 274 272 265 265 277 277 280 282 284 283 282 280 278 281 282 282 282 281 283 284 283 280 281 281 281 281 283 283 283 284 284 284 284 283 283 283 283 284 284 285 286 287 286 286 286 287 287 287 287 287 287 286 285 285 284 284 283 282 282 281 281 281 281 281 281 280 280 280 280 279 279 278 277 277 277 277 279 281 281 280
282 280 278 274 278 270 272 272 271 277 276 278 278 280 281 278 279 278 273 278 283 282 283 282 283 282 280 279 280 280 282 283 280 281 284 284 285 286 285 283 284 284 284 285 285 285 286 286 287 287 287 287 287 287 286 287 286 285 284 283 283 283 282 282 281 280 280 280 280 280 280 280 279 279 279 278 277 276 276 276 276 277 278 279 279 278
283 278 279 275 273 276 271 270 270 270 266 272 279 283 284 283 283 282 279 274 283 279 282 282 280 279 278 279 279 280 282 278 276 278 283 284 285 285 285 286 285 284 284 284 285 285 286 286 287 286 286 285 285 285 284 283 281 281 280 280 280 280 280 280 280 280 280 280 280 280 280 279 279 278 278 277 276 276 276 276 276 276 277 277 276 276
280 282 279 276 273 274 271 268 267 266 269 277 274 280 282 283 283 281 277 271 279 276 279 279 278 279 279 279 279 280 277 273 274 278 283 283 284 284 283 284 284 284 285 285 284 284 285 284 284 284 284 284 282 282 281 281 280 278 277 278 278 278 278 278 279 279 279 279 279 279 279 278 278 278 277 276 276 275 274 274 274 275 276 276 275 274
275 276 276 273 272 272 271 268 267 271 270 276 277 281 282 283 281 278 267 268 278 280 280 279 277 278 279 280 280 278 276 273 275 279 283 283 284 284 284 283 283 284 284 284 284 283 283 283 282 281 281 280 280 280 280 279 278 277 276 276 277 276 276 277 277 278 278 278 278 277 277 277 276 276 276 275 274 274 274 274 274 274 274 274 274 273
274 273 276 270 271 272 272 269 272 272 278 280 279 282 283 284 280 269 264 273 277 279 281 282 280 280 280 279 280 276 279 280 281 282 283 283 283 283 284 284 284 284 283 282 281 282 280 280 279 278 278 278 279 278 278 277 276 275 274 274 274 274 274 275 276 276 276 276 275 275 274 275 275 274 274 274 273 273 273 273 273 273 272 272 271 271
270 272 272 274 271 270 271 269 269 272 277 280 281 282 284 278 269 268 277 280 280 280 281 281 281 281 280 280 280 280 281 282 283 283 283 283 283 283 283 284 283 283 283 282 281 280 278 277 277 277 277 277 276 276 275 275 273 273 272 272 271 272 273 273 273 273 273 273 272 272 272 272 272 272 272 272 272 271 271 272 272 271 271 271 270 269
272 270 268 270 272 273 271 268 267 263 275 279 280 279 282 273 274 280 282 282 283 282 282 281 282 281 281 280 281 281 281 281 282 282 282 282 282 282 282 282 281 280 279 278 278 278 276 275 275 274 274 274 274 274 273 272 271 270 270 269 270 271 271 271 271 270 270 270 269 269 269 269 269 270 270 270 270 270 269 270 269 269 269 268 268 267
277 270 271 272 275 268 268 266 267 274 278 281 279 274 278 281 283 283 282 280 283 282 281 281 281 282 282 281 281 281 281 281 281 282 282 282 282 282 282 281 279 278 278 277 277 275 274 273 272 271 272 272 272 271 271 270 268 268 268 267 269 269 269 268 267 267 267 266 266 266 266 266 267 267 268 268 268 268 267 267 267 267 268 267 267 266
277 273 275 271 275 273 270 273 277 280 281 282 282 281 282 284 284 284 283 282 281 282 283 281 281 282 282 282 281 281 280 281 281 281 281 280 281 280 279 278 277 276 276 275 274 273 272 270 269 269 269 270 269 269 269 269 267 266 265 266 267 266 265 264 264 263 263 262 262 263 263 264 264 264 265 265 266 265 266 266 266 265 266 266 266 266
280 280 281 278 275 279 280 280 281 281 281 281 283 284 283 283 284 284 283 282 283 283 283 281 282 282 282 281 280 280 280 280 280 280 280 279 278 278 278 277 276 275 274 273 272 271 269 269 268 267 267 267 267 267 267 266 265 263 263 264 264 263 262 262 261 260 260 260 261 261 261 261 261 262 263 263 264 264 265 265 265 265 265 265 265 265
279 280 277 274 276 274 269 279 278 279 281 281 282 283 284 284 283 283 283 283 283 283 283 283 282 281 280 280 279 278 279 280 278 278 278 277 276 276 275 274 274 273 271 270 270 269 267 266 265 265 265 263 265 264 264 263 263 263 263 262 262 262 261 260 259 259 259 259 259 260 260 259 260 260 261 262 262 263 264 264 264 264 264 264 264 264
274 282 276 276 275 273 273 277 279 281 281 282 282 281 281 282 283 284 284 284 283 282 281 280 279 278 279 278 278 277 277 277 276 276 275 275 274 274 273 273 271 270 270 269 268 267 265 264 263 263 262 262 262 263 262 262 262 262 262 261 261 260 260 259 259 258 258 258 259 259 259 259 260 260 260 261 261 261 261 262 263 262 262 262 263 262
279 279 273 276 274 276 278 279 279 280 280 281 282 282 283 283 283 283 283 283 281 280 278 277 278 278 277 277 276 275 274 274 274 274 272 272 272 272 271 270 269 268 267 266 266 265 263 263 262 261 261 260 261 261 261 261 261 261 261 261 260 260 258 258 258 258 258 258 258 258 259 259 259 259 259 260 260 260 261 261 261 261 261 262 263 263
278 274 278 276 272 272 273 275 279 274 274 279 281 282 282 283 283 283 282 280 279 278 277 276 275 275 275 275 274 273 272 272 272 272 270 270 270 269 269 268 267 266 265 265 264 263 262 262 261 260 259 260 260 260 260 260 260 260 260 260 259 259 258 258 258 257 257 258 258 258 258 259 259 259 259 259 259 259 260 263 266 264 262 262 266 268
277 277 277 274 273 272 278 280 281 280 279 280 281 283 283 281 282 280 280 280 278 277 275 275 275 274 273 272 272 271 270 270 270 269 268 268 268 268 267 266 265 264 263 263 262 261 260 260 259 259 259 259 260 259 259 259 259 259 259 259 259 259 258 258 257 257 257 257 257 258 258 258 258 258 258 258 259 259 259 259 261 266 267 268 267 268
Wind_Speed
6 8 8 8 11 11 12 14 17 17 17 18 15 13 15 16 16 14 17 14 13 15 12 13 16 18 17 15 16 17 17 17 18 16 17 18 15 11 7 4 6 4 5 5 8 10 12 12 11 11 10 11 11 12 12 9 7 4 3 3 4 3 5 5 6 6 6 7 7 7 8 8 7 9 12 9 8 10 10 11 8 7 8 8 10 10
3 9 10 11 14 14 15 13 12 13 13 14 14 15 15 13 16 13 17 14 15 12 12 12 16 16 17 18 21 20 16 16 17 17 18 18 13 3 8 3 3 3 5 7 9 11 12 13 14 12 11 13 15 15 14 13 11 8 6 4 3 2 4 5 5 5 6 6 6 6 6 7 6 7 7 8 8 9 10 8 6 6 7 8 8 8
7 10 11 14 14 14 14 9 12 12 15 14 12 12 13 12 15 17 17 9 5 4 12 13 18 16 19 21 20 18 13 11 12 13 15 10 3 3 4 2 3 7 8 10 11 12 12 13 14 11 11 12 13 13 14 14 13 10 7 4 3 2 2 3 4 5 5 5 5 5 4 5 5 4 4 5 6 8 8 6 5 6 6 7 7 8
9 7 14 14 12 13 13 11 9 12 12 10 10 10 12 11 12 11 7 2 3 4 12 14 17 14 18 19 14 9 9 9 10 14 7 5 4 2 5 6 8 9 10 11 12 13 13 13 13 13 13 12 11 11 12 14 13 9 9 8 6 3 1 1 2 4 3 3 3 4 4 2 3 2 2 3 3 4 5 5 5 5 5 7 7 8
12 8 6 4 7 10 12 11 11 10 11 9 11 11 12 13 12 13 13 14 16 15 13 11 12 11 6 3 6 8 7 6 11 1 9 7 6 9 10 12 12 12 11 11 12 13 13 14 15 14 14 12 13 14 14 13 12 9 10 9 8 5 4 3 2 1 2 1 2 2 2 1 2 1 1 3 5 6 6 6 6 8 8 9 9 9
13 13 5 3 5 6 8 10 13 11 10 10 12 14 16 15 16 14 15 14 9 8 7 10 10 4 2 1 4 5 7 12 11 10 10 10 7 10 12 12 12 12 12 13 12 13 12 13 13 14 15 16 15 15 14 12 12 12 9 9 8 6 6 6 5 3 2 2 2 3 3 4 4 5 5 7 6 6 7 7 6 6 8 8 8 8
7 5 1 6 8 8 8 10 13 9 10 9 6 3 6 8 10 12 11 8 7 6 1 5 5 10 4 12 13 10 9 14 7 10 8 9 11 10 12 12 10 10 11 12 13 13 15 14 14 16 17 15 15 14 12 11 11 11 9 9 9 8 7 7 7 6 3 3 3 4 5 5 5 5 4 4 5 4 4 4 6 6 7 8 9 9
6 5 3 2 5 7 6 8 10 11 8 9 4 4 5 8 9 8 6 6 10 9 12 9 8 10 12 7 9 6 12 9 10 8 10 12 13 13 13 12 12 12 12 10 12 13 14 15 15 16 15 15 14 13 12 11 10 11 11 11 11 9 10 9 8 7 6 5 4 5 4 4 5 5 6 5 3 3 3 3 4 5 5 7 8 9
4 5 5 6 7 6 9 10 1 6 8 3 2 5 5 5 7 5 6 7 8 9 10 3 8 6 9 6 2 7 10 3 9 11 11 12 13 13 12 12 12 12 11 11 10 13 13 14 14 14 14 14 14 14 13 11 11 10 10 12 12 12 11 11 11 9 7 6 6 6 5 5 5 5 5 5 3 3 2 4 4 5 5 6 8 9
2 0 6 6 5 7 8 3 1 5 8 2 0 1 2 3 5 6 6 8 8 7 12 6 10 5 12 6 3 5 6 4 9 10 11 9 11 10 10 11 12 10 10 10 10 11 11 11 10 10 11 13 13 11 11 11 10 8 8 13 14 14 11 10 11 10 9 8 6 5 6 7 7 7 6 5 5 4 3 3 4 4 5 5 6 8
2 1 5 3 8 7 3 4 4 3 2 2 2 6 8 7 7 6 6 5 5 9 11 9 14 8 9 5 5 3 2 8 9 8 10 13 11 10 9 9 9 9 8 7 8 10 10 10 10 10 11 11 11 9 10 9 7 7 12 14 16 14 11 12 11 11 10 8 7 6 7 6 6 7 7 7 7 6 5 5 4 4 4 5 5 6
7 4 1 5 10 1 1 3 2 1 1 1 4 5 6 8 7 4 3 3 5 9 4 8 5 9 7 2 3 4 4 7 5 5 9 11 11 9 8 7 8 9 7 7 8 10 10 9 10 10 11 11 12 11 9 7 8 11 14 14 16 16 14 12 11 11 11 9 8 8 8 7 7 7 5 6 7 7 7 6 6 4 4 5 5 5
5 11 10 5 2 8 6 6 3 4 4 5 5 4 5 5 4 8 4 6 6 7 3 2 3 5 12 10 12 7 6 6 4 7 11 12 11 10 9 8 7 7 8 8 9 10 10 8 7 9 9 8 6 5 7 10 11 12 14 16 16 16 15 13 12 12 11 10 10 9 8 8 7 7 7 7 6 6 6 6 6 6 5 4 5 5
9 4 7 7 0 7 7 6 3 3 7 6 5 3 4 7 6 9 6 6 10 1 2 2 2 8 11 11 14 16 5 9 10 10 12 12 12 11 9 7 7 7 8 8 9 8 4 5 7 8 7 6 7 10 11 12 13 12 12 14 15 15 14 13 12 12 11 11 10 9 9 8 7 7 7 7 7 6 6 5 6 6 6 6 6 6
11 8 5 8 2 9 11 10 7 6 8 9 5 6 6 7 4 7 5 11 9 10 6 3 5 4 3 5 3 7 8 10 10 10 11 12 12 11 9 9 8 8 7 7 7 4 4 7 7 6 6 7 9 11 11 11 12 11 11 12 14 14 13 13 12 11 12 10 10 10 9 8 7 7 7 7 7 7 7 7 6 6 6 6 7 6
8 10 2 6 3 12 10 11 2 3 2 3 0 3 2 6 2 8 3 6 8 9 10 5 6 4 8 5 4 3 11 12 12 12 11 11 9 9 8 8 7 6 6 5 3 4 7 8 7 7 8 9 9 10 10 11 10 10 10 12 13 12 11 11 12 11 11 10 9 10 10 9 8 7 6 6 6 7 8 8 7 7 6 6 7 7
4 8 7 2 3 5 2 1 2 2 6 3 3 5 3 4 2 4 3 3 1 5 14 8 11 14 10 14 16 18 8 10 11 11 10 9 8 8 8 7 6 5 5 4 4 6 8 8 8 8 9 8 8 9 9 9 9 10 10 11 12 11 10 10 10 10 10 10 10 10 10 9 8 8 8 7 8 9 8 7 7 7 7 7 6 5
10 13 3 5 8 6 4 3 3 3 2 6 3 2 1 2 2 4 8 5 8 12 10 6 14 13 9 9 8 9 10 9 8 10 9 9 8 8 6 5 5 4 3 4 6 7 7 7 8 8 8 8 8 9 9 10 9 8 8 9 9 8 9 9 9 10 10 10 10 10 10 10 9 8 7 7 7 7 7 7 7 7 7 7 7 6
3 9 9 4 8 3 2 1 5 5 3 4 2 4 3 3 6 6 4 8 11 13 10 10 15 14 14 16 10 6 10 10 9 9 8 7 6 7 6 5 4 3 3 4 5 5 6 8 8 8 8 8 8 9 9 9 9 9 8 8 7 8 8 9 8 8 8 8 7 7 8 9 9 9 9 8 8 7 6 6 6 6 6 7 7 7
1 9 9 3 4 4 2 3 7 5 2 2 2 3 1 3 5 10 8 7 6 16 12 12 10 12 10 12 13 17 10 10 10 8 6 7 6 5 5 3 3 2 2 3 4 4 4 5 6 6 7 8 8 8 8 7 6 9 8 8 8 8 8 9 9 8 7 7 6 6 6 6 7 7 7 7 7 6 6 6 6 6 6 6 6 5
2 4 8 1 2 2 5 5 8 11 6 4 5 8 5 3 2 6 2 7 10 13 12 11 11 9 9 6 7 12 11 8 8 7 6 6 5 5 3 3 2 2 2 3 2 2 2 2 2 3 4 4 5 6 7 7 9 9 9 10 9 9 9 9 8 7 6 6 6 6 8 8 7 8 7 7 6 6 6 6 6 6 5 6 6 6
2 4 8 7 11 11 12 8 9 11 12 12 9 9 9 8 9 9 11 5 5 7 10 10 14 7 2 7 6 7 7 6 7 9 7 6 5 3 3 3 2 1 2 1 1 0 1 1 2 3 4 4 6 6 7 7 6 7 8 7 8 8 8 8 8 7 7 6 6 7 6 6 5 5 6 6 6 7 7 8 7 7 7 7 6 6
2 1 5 11 11 13 15 15 10 3 4 7 9 14 13 12 6 8 14 8 6 7 6 12 16 9 5 5 6 7 7 8 7 8 8 6 5 4 3 2 1 1 1 1 1 2 2 2 3 3 3 4 4 4 5 5 5 5 6 6 6 7 7 7 6 6 6 6 6 6 6 5 5 4 4 4 4 6 6 7 8 8 8 7 7 7
2 2 6 10 10 11 15 14 12 8 8 9 8 3 4 6 6 8 8 6 5 5 9 8 12 3 4 8 7 8 8 7 6 6 6 5 3 2 2 1 1 1 1 2 2 2 2 2 3 2 2 3 2 2 3 2 2 3 3 4 5 5 6 6 6 6 5 5 5 4 5 5 6 6 6 7 6 7 6 6 6 6 7 6 6 7
3 3 4 4 6 6 10 9 6 7 2 1 2 5 6 6 7 6 5 3 7 6 12 10 10 1 4 4 6 5 4 2 3 3 4 4 3 3 2 1 1 2 3 3 3 3 3 2 2 2 2 2 2 2 3 2 2 3 2 3 3 4 4 5 5 5 6 5 6 5 5 5 5 6 7 8 6 7 7 6 6 6 7 7 6 6
5 5 5 10 10 11 10 9 8 3 1 3 2 8 9 9 11 10 9 7 10 1 8 6 7 3 4 4 3 4 5 5 5 5 4 4 5 5 3 3 3 2 3 3 2 2 3 2 2 2 2 1 2 2 2 3 2 3 3 2 2 3 4 5 4 5 5 5 5 5 6 5 5 6 6 7 7 7 7 7 6 6 6 7 7 7
2 1 5 9 11 13 12 8 7 7 10 11 12 9 11 10 8 8 9 11 14 8 10 8 13 13 17 16 10 7 8 5 4 6 7 5 4 4 3 4 3 3 3 2 2 2 2 3 2 2 2 2 2 2 2 3 3 3 3 3 2 3 3 4 4 5 5 5 5 4 5 5 6 6 6 6 6 6 6 6 6 5 6 6 6 6
2 8 8 10 11 12 13 14 17 14 15 14 13 13 11 10 8 10 12 16 7 11 15 9 15 12 11 16 14 13 11 12 5 7 5 4 6 6 5 4 3 3 4 3 4 4 4 5 5 5 6 6 5 5 4 4 4 4 4 4 3 3 3 3 4 5 5 5 5 5 5 5 5 6 6 6 7 6 7 7 6 6 6 6 6 7
5 10 11 14 12 17 16 17 16 15 14 15 16 17 18 17 16 16 15 15 11 13 16 13 18 21 17 19 19 19 19 8 7 7 7 5 5 5 5 5 6 6 6 6 6 5 5 5 5 5 6 6 6 7 8 7 7 6 6 5 5 5 6 6 6 6 6 6 6 6 6 6 5 5 6 6 6 7 8 8 8 8 7 6 6 5
4 10 14 12 11 12 15 15 14 14 13 14 15 17 18 20 23 22 21 19 20 21 21 22 25 29 22 22 24 12 6 6 5 6 5 5 4 5 5 6 6 7 7 7 6 6 6 5 5 5 5 6 6 6 6 6 6 7 7 8 7 7 6 7 7 8 8 8 7 7 7 7 6 6 7 7 7 7 8 8 8 8 8 8 7 7
5 6 2 4 6 9 10 13 13 13 12 16 18 21 23 26 25 22 22 23 22 22 24 25 25 24 19 12 6 7 4 5 3 3 3 2 2 3 4 6 7 7 9 8 8 7 7 7 7 7 7 7 7 7 6 6 6 6 7 7 6 6 6 6 8 8 8 9 8 8 8 8 7 7 7 7 7 5 7 11 9 8 7 7 6 8
4 4 5 5 8 10 8 14 14 14 16 16 16 19 23 23 22 17 17 12 14 16 19 19 16 15 5 7 4 5 4 4 3 3 1 1 2 4 5 6 7 8 9 9 9 8 8 8 8 7 8 8 8 8 7 7 7 6 7 7 6 6 5 5 6 7 8 8 9 9 9 8 8 8 7 7 5 6 7 7 8 8 8 9 8 7
4 5 6 5 9 8 9 8 11 5 6 13 18 22 19 20 20 20 20 20 20 19 16 14 12 2 2 1 1 2 7 2 3 3 4 3 5 6 7 8 9 10 10 9 9 9 8 8 8 8 8 8 7 8 8 8 8 8 8 7 7 5 5 6 6 6 7 7 7 8 8 8 7 6 5 4 4 4 6 8 8 9 8 7 7 8
6 8 11 8 12 9 10 6 2 4 14 17 5 1 7 14 12 14 14 15 15 12 9 2 1 2 2 1 2 4 4 5 7 6 6 5 6 7 7 8 9 10 10 10 10 10 9 8 8 8 8 9 9 9 9 8 8 9 8 8 7 7 7 7 7 7 7 7 7 7 7 8 7 8 8 7 6 5 6 7 8 9 8 9 8 7
8 8 11 7 11 13 11 9 11 15 15 2 3 5 5 3 2 10 15 16 16 15 12 10 11 6 3 4 5 7 6 8 7 9 8 8 7 6 7 8 9 10 11 11 11 10 10 9 10 9 10 10 10 9 8 8 8 8 7 7 7 7 7 7 8 7 7 8 8 7 5 6 7 8 8 8 7 8 9 10 10 10 9 8 7 8
12 12 10 11 11 10 10 11 12 12 1 2 4 3 6 6 10 12 14 14 16 15 11 9 7 4 4 6 6 6 7 7 7 8 10 10 7 5 6 7 8 10 10 10 12 12 12 11 10 10 9 8 8 7 7 8 7 7 7 6 6 7 7 7 6 9 8 8 9 8 8 8 9 9 7 6 6 8 10 10 10 11 11 9 8 8
13 10 8 11 6 13 10 12 18 11 16 16 17 13 10 9 7 6 8 8 4 2 6 5 1 6 6 8 7 7 4 4 7 8 8 7 6 5 6 7 9 9 10 10 11 12 12 13 13 12 11 9 7 6 6 7 6 6 7 7 6 7 8 8 9 9 10 9 10 9 11 11 10 10 9 6 8 10 10 10 11 11 8 10 10 10
11 12 7 9 7 10 13 12 13 11 13 7 2 3 6 6 6 5 8 7 3 4 6 0 3 6 6 6 5 7 3 6 7 7 5 5 6 8 7 5 7 9 9 11 11 11 12 11 11 11 11 12 10 9 8 9 8 8 6 7 8 9 10 10 11 11 10 12 10 12 11 9 9 10 11 10 11 11 8 8 8 10 9 10 10 11
5 9 7 11 9 8 12 13 12 12 9 4 4 3 4 6 5 7 6 10 0 1 1 4 2 3 3 5 7 6 4 6 7 7 6 9 11 10 10 9 9 10 11 11 12 10 9 9 10 11 10 10 10 9 8 8 7 6 7 8 10 9 11 11 12 12 11 12 12 11 10 10 11 12 11 11 11 11 12 13 12 10 10 10 9 10
3 5 6 9 12 11 11 11 13 4 6 2 2 1 5 3 3 5 12 9 3 4 1 1 2 5 5 6 7 5 5 7 8 8 10 12 12 12 11 11 11 11 12 10 9 9 10 10 11 11 11 11 11 11 11 8 7 8 9 10 10 10 10 12 12 12 13 13 12 9 9 11 12 13 12 13 13 12 12 12 12 12 10 9 8 9
3 3 7 12 11 12 15 12 10 10 9 9 5 7 1 3 1 6 13 3 4 2 4 3 4 4 7 7 6 6 7 8 9 11 12 12 13 12 11 9 10 10 9 9 8 9 8 8 8 9 11 10 10 11 10 8 9 10 10 11 11 11 12 12 13 13 12 12 11 11 14 13 13 14 14 13 14 13 13 11 12 12 11 12 9 10
2 3 5 10 13 12 12 14 13 11 7 6 5 6 6 2 7 10 2 5 5 5 4 7 8 9 9 9 8 8 8 9 11 10 11 12 12 12 11 11 8 7 7 7 8 8 7 8 9 10 9 9 10 10 8 9 10 11 11 11 11 12 13 13 13 12 12 12 13 14 14 15 14 14 14 14 13 14 14 13 13 13 13 11 13 15
5 3 6 8 7 8 9 11 11 12 2 3 3 4 5 5 5 6 2 4 3 3 5 6 7 8 7 8 8 9 10 10 11 11 12 12 11 11 10 7 6 7 8 9 9 8 8 9 10 10 11 10 9 9 8 9 11 11 10 11 12 12 11 12 12 13 14 14 16 16 17 16 16 15 13 14 14 15 16 15 14 14 13 14 15 16
3 9 9 10 5 10 10 9 5 4 7 5 5 5 4 7 8 9 9 10 9 8 7 7 8 9 9 9 9 9 10 11 11 12 12 11 10 8 6 6 6 6 7 6 6 8 7 9 9 11 11 9 8 8 7 8 10 10 11 14 13 13 12 12 14 16 16 16 17 18 18 18 17 17 16 16 16 15 16 16 15 14 12 14 14 14
8 11 7 11 4 9 9 10 7 4 4 3 8 8 8 8 9 10 9 10 9 8 7 8 10 9 8 7 9 9 10 10 12 11 10 8 7 6 6 6 6 7 7 7 8 7 6 9 11 12 12 9 8 8 7 7 10 13 14 13 12 12 13 15 16 16 17 18 17 18 17 16 16 17 17 16 16 17 17 17 16 15 13 14 13 15
6 12 8 11 12 15 15 16 13 14 13 9 9 8 11 14 14 13 10 8 8 9 10 10 8 7 7 5 6 7 8 9 9 7 6 6 6 6 6 6 6 6 6 6 6 7 8 9 9 10 12 12 8 8 8 8 7 12 13 13 12 13 13 15 17 17 18 18 16 16 17 18 18 17 16 17 15 16 16 17 16 17 16 15 15 16
11 15 10 11 9 9 11 11 12 16 17 15 16 16 14 13 15 12 11 11 11 10 7 4 3 5 5 3 5 7 8 6 6 6 6 6 6 6 6 6 6 6 7 6 8 8 7 8 9 11 12 14 10 7 7 8 8 9 11 12 13 13 13 15 16 17 17 17 16 17 16 16 15 15 15 15 14 13 13 14 14 14 15 15 14 14
11 13 14 13 15 14 14 14 16 14 15 16 14 13 15 16 15 14 11 11 5 3 2 1 1 3 2 3 4 4 5 4 5 6 5 5 6 6 6 6 6 7 6 6 7 6 6 8 10 12 13 13 11 10 9 9 9 10 12 12 12 13 15 15 15 16 16 17 15 15 14 15 19 18 15 14 13 14 14 13 13 14 15 14 14 14
9 4 11 7 11 13 16 19 19 18 19 20 19 17 15 14 13 13 14 6 5 3 5 3 2 2 1 3 1 3 4 5 5 5 5 5 5 5 6 6 7 7 7 7 7 7 8 9 10 11 12 13 12 11 11 10 10 11 12 10 11 13 15 17 19 17 18 16 15 14 14 14 14 14 14 15 15 14 14 14 15 15 16 16 14 15
11 17 14 12 13 14 13 13 12 11 11 12 14 12 13 12 11 10 4 4 3 4 4 5 4 3 2 1 1 2 2 4 3 3 4 5 5 5 6 7 6 7 7 7 7 8 9 9 10 12 13 12 11 11 12 12 12 12 11 13 13 12 15 16 17 17 16 14 14 15 14 13 13 13 14 15 15 15 15 18 24 21 18 17 23 30
13 17 12 13 12 12 12 14 13 14 15 16 15 13 4 3 4 5 6 6 5 4 4 3 4 4 4 4 2 1 3 3 4 4 4 4 5 5 6 7 7 7 9 9 9 9 8 10 11 12 12 12 10 11 12 13 14 14 13 11 12 13 14 15 16 16 15 14 13 15 15 15 15 14 14 14 15 15 16 16 14 22 29 30 30 30
Wind_Direction
167 211 200 209 233 242 248 238 246 262 275 285 287 277 275 277 278 278 274 283 289 293 279 283 288 294 298 294 288 281 279 277 277 276 272 270 271 276 282 64 62 355 17 52 55 49 38 33 23 21 16 14 21 20 15 21 15 355 305 271 251 222 209 205 200 202 199 201 207 213 217 221 218 224 232 229 228 236 232 226 205 184 182 174 177 180
207 229 229 232 245 256 265 286 292 286 279 280 282 280 277 274 281 279 288 297 293 293 288 288 288 289 295 296 285 278 280 281 272 267 262 261 277 331 84 53 326 30 93 73 53 43 39 30 26 22 18 17 19 13 14 17 9 2 353 316 283 222 204 209 208 204 206 212 213 212 215 219 220 218 219 224 218 228 232 220 201 192 186 177 179 177
208 228 235 236 245 257 269 277 272 275 277 273 269 275 282 281 284 286 282 291 328 340 286 298 297 296 287 275 276 281 273 253 261 260 260 279 9 65 328 334 72 106 84 59 45 41 34 31 28 25 24 24 23 14 15 13 11 14 8 2 327 293 227 218 216 211 213 214 219 222 230 222 222 222 224 222 226 230 226 215 199 196 185 182 181 180
252 242 237 239 251 258 262 257 265 267 258 259 262 264 269 288 290 298 301 106 214 251 298 304 299 290 272 265 264 269 225 227 252 260 291 48 52 16 56 80 99 77 67 51 44 35 30 30 24 23 24 22 21 21 17 15 12 9 7 3 355 344 319 273 229 237 246 244 229 222 239 239 229 249 201 207 214 215 212 210 195 201 195 190 188 186
252 282 71 261 249 252 262 266 264 260 262 253 252 261 273 272 278 290 305 311 309 294 279 304 287 286 279 141 181 201 237 247 266 262 85 77 79 84 82 66 61 62 54 51 43 36 31 27 26 22 21 19 22 19 16 12 12 5 8 9 2 3 6 3 354 247 263 229 193 168 96 94 184 93 192 195 216 208 204 209 203 204 198 195 194 190
260 266 119 211 217 246 253 259 251 254 272 271 257 257 264 276 288 296 307 318 309 299 80 343 328 319 111 185 314 317 284 287 273 124 109 107 105 97 86 75 65 58 50 47 42 40 37 34 30 25 23 24 20 17 10 7 7 5 4 17 25 33 29 20 11 353 287 251 250 232 230 231 231 243 227 229 225 217 213 216 215 210 205 200 202 202
288 76 168 231 242 243 244 256 260 257 262 268 282 352 299 299 299 298 303 322 299 305 91 36 306 292 260 277 272 271 263 250 267 84 95 104 101 83 71 65 54 47 50 42 41 35 33 26 28 29 26 22 20 13 7 6 6 6 5 24 35 39 42 36 11 5 339 309 288 275 271 280 279 277 268 256 251 243 233 220 213 209 203 205 205 209
206 222 135 223 227 234 245 247 246 230 250 266 43 335 320 303 300 310 314 277 274 284 278 252 214 270 293 282 272 195 250 256 90 92 103 102 93 79 74 68 54 47 47 48 40 37 33 30 27 26 23 21 17 7 8 10 11 9 12 30 35 39 40 33 24 20 9 339 335 321 305 290 284 285 291 305 291 255 252 232 214 211 207 204 210 214
189 173 197 186 201 216 228 240 38 199 228 304 46 7 315 311 301 298 284 287 286 305 296 175 206 260 262 306 179 228 244 236 95 106 109 102 92 85 82 81 78 66 51 49 46 42 36 31 28 24 25 21 15 8 5 6 10 6 15 33 40 41 38 27 27 23 20 9 345 338 327 310 303 298 296 296 299 269 238 227 214 215 215 207 209 216
219 103 206 206 198 232 239 259 68 179 243 92 69 142 232 246 250 265 273 277 287 283 275 234 193 254 285 305 250 203 269 117 108 105 98 80 71 76 87 85 80 74 64 51 48 49 45 37 35 32 31 30 21 7 357 3 7 3 17 37 40 39 36 29 26 22 22 14 3 348 341 331 322 319 311 302 297 298 272 241 230 224 221 219 209 211
298 115 25 273 226 255 59 56 13 19 6 99 264 289 272 240 241 227 238 258 277 258 268 257 198 221 293 328 295 257 211 132 131 139 128 115 97 80 70 74 76 71 59 57 55 48 45 39 34 30 34 30 25 13 2 1 0 10 32 35 39 34 33 29 27 25 24 18 10 4 349 341 331 324 317 312 307 302 291 276 260 242 236 227 219 209
227 182 182 228 241 215 174 118 86 156 40 260 275 291 304 275 202 239 232 225 261 276 39 38 179 217 250 216 75 83 112 139 161 151 137 110 103 101 89 68 63 64 63 54 52 45 34 32 32 29 30 27 19 8 2 357 11 27 33 33 37 33 29 26 23 24 25 21 16 7 358 344 332 324 313 309 309 309 302 293 283 271 252 242 232 220
217 217 216 188 157 220 201 250 160 177 170 222 245 252 276 295 295 276 229 241 242 276 101 58 35 275 241 248 277 282 143 114 93 118 135 121 110 102 89 79 67 62 57 49 46 42 28 22 25 25 28 29 24 7 6 20 24 29 32 32 36 32 26 25 24 25 25 25 19 9 358 349 342 334 326 314 304 301 300 302 296 288 278 265 247 230
285 102 186 188 101 206 203 206 190 217 192 198 216 224 255 285 275 274 276 269 269 139 134 106 98 264 268 271 242 242 159 112 108 105 118 121 119 113 104 85 72 64 61 55 51 49 27 24 40 37 25 21 15 16 18 23 27 29 34 31 34 33 27 24 25 25 25 27 21 11 7 354 346 338 325 317 311 310 308 306 304 302 295 289 277 266
298 278 191 168 204 152 195 224 245 308 162 202 218 212 251 256 262 280 282 277 286 295 321 185 306 244 308 339 353 230 93 106 97 97 96 98 101 102 100 90 75 66 56 58 60 46 41 47 42 35 28 26 26 24 25 25 27 28 31 32 35 33 27 26 24 26 27 25 22 17 10 3 355 343 336 328 325 320 317 314 311 303 303 299 297 291
256 265 302 150 8 156 191 218 262 90 241 165 13 8 267 241 213 253 289 289 295 300 286 233 221 292 267 23 2 92 106 106 111 101 103 97 93 93 83 72 68 60 57 52 56 46 43 43 39 36 32 30 25 24 26 28 27 27 29 33 36 33 27 25 26 28 27 25 24 23 14 8 0 349 341 334 333 328 323 317 310 302 294 291 298 301
253 271 94 177 76 241 216 72 204 182 257 121 165 215 234 24 232 281 285 223 283 274 259 266 270 263 274 263 250 236 110 99 103 106 102 99 95 89 85 79 68 55 45 41 33 31 32 35 33 33 34 30 29 29 28 27 25 28 29 31 31 28 27 26 26 25 26 25 24 21 17 11 6 359 352 343 335 329 324 318 309 302 300 295 286 284
271 279 255 149 255 199 43 358 337 13 354 99 232 202 66 267 8 258 269 259 242 255 269 264 270 280 279 288 81 98 114 125 119 112 104 104 102 86 75 80 84 69 52 41 37 37 32 29 27 28 28 25 24 26 26 28 28 28 34 33 34 28 23 21 24 26 25 20 19 17 13 9 10 5 355 349 340 332 326 320 315 313 310 306 304 297
343 280 274 265 270 52 34 179 256 210 284 266 293 359 281 253 256 201 246 255 259 256 269 236 262 264 267 268 267 198 156 147 127 122 122 113 106 110 109 105 96 88 66 50 42 36 32 26 25 20 17 15 16 17 21 17 17 24 28 28 32 33 32 27 24 26 33 30 24 16 13 7 5 6 2 354 349 338 331 326 319 315 313 308 303 300
128 273 275 72 27 81 131 186 244 201 123 121 329 268 202 330 258 268 257 278 272 272 272 262 242 256 253 271 271 279 170 137 138 133 116 114 111 110 113 110 99 91 84 72 59 50 39 35 22 12 4 5 7 8 8 10 11 18 15 16 19 22 26 28 27 22 20 23 27 23 21 19 15 9 1 353 353 345 340 333 324 319 321 316 313 303
300 1 274 302 125 256 245 195 237 264 238 198 223 246 223 216 348 302 289 234 249 263 254 273 260 256 270 359 26 69 112 137 139 127 111 101 95 93 97 106 92 72 60 54 47 38 23 16 14 2 3 359 5 11 13 12 14 12 11 11 11 14 11 15 17 13 9 6 6 10 12 9 10 10 7 1 360 352 346 344 334 340 333 320 313 311
252 202 253 281 281 261 263 266 279 273 279 274 258 248 256 262 250 239 251 208 240 240 258 257 258 251 296 21 40 70 78 79 97 122 116 115 110 101 80 58 52 53 76 55 47 25 346 7 11 8 10 10 13 16 17 17 14 13 10 8 7 12 12 2 358 358 352 356 354 359 356 349 345 353 355 4 6 3 2 353 350 344 339 335 325 326
321 302 278 268 259 268 282 288 297 278 271 272 271 269 266 269 254 252 268 260 276 257 275 258 269 252 66 13 44 58 67 77 84 101 109 116 121 123 137 140 133 111 346 344 332 340 349 349 334 342 339 353 5 5 15 13 18 14 9 8 7 8 2 0 348 346 346 346 350 356 357 355 348 342 338 344 349 360 356 358 358 351 350 338 330 325
95 253 253 256 261 276 283 285 276 253 245 245 237 277 350 283 315 305 292 317 288 298 288 271 259 294 56 41 42 44 47 58 68 82 102 116 123 127 113 58 42 322 295 314 291 310 312 324 326 323 334 327 341 342 332 348 343 358 4 7 2 360 355 348 345 340 341 339 344 344 346 348 347 349 354 355 352 354 349 348 355 345 349 342 329 329
273 209 247 282 295 282 271 267 235 57 4 29 340 332 323 292 281 282 296 228 249 215 252 272 261 279 360 49 71 70 101 125 140 135 145 154 163 165 168 202 258 262 280 275 292 294 302 284 295 301 314 312 310 335 320 328 331 316 325 347 340 343 338 336 332 334 332 332 336 340 347 345 347 345 348 351 348 349 346 351 349 344 339 334 331 330
257 279 285 279 277 276 276 268 277 280 77 311 234 264 278 278 283 302 285 289 281 157 245 252 272 295 139 185 170 189 196 188 183 177 177 180 173 175 177 207 222 256 276 300 309 311 303 309 297 316 326 303 316 317 308 299 300 304 309 318 314 318 320 313 324 312 321 320 326 327 337 338 340 341 344 343 340 342 344 343 341 341 339 339 334 333
270 271 250 255 262 264 269 290 319 317 299 290 297 292 282 274 273 257 270 264 261 281 275 263 271 281 291 293 259 228 196 214 187 190 180 165 168 172 184 197 208 224 240 259 279 277 294 286 299 313 319 319 322 316 306 304 303 303 306 303 312 314 316 317 319 321 321 323 323 321 330 334 336 335 335 335 333 333 332 333 329 325 333 333 328 334
234 267 250 248 242 254 268 276 281 283 279 279 282 280 278 270 266 263 253 259 302 316 275 256 276 286 277 288 291 292 289 280 249 169 175 181 173 184 195 201 218 246 242 254 272 280 300 312 316 327 332 338 336 333 330 330 322 325 325 324 321 331 330 323 326 317 318 316 320 317 324 324 321 324 328 329 329 331 329 328 326 325 320 319 324 331
287 275 275 278 275 273 275 277 281 283 284 283 280 278 277 278 272 259 257 270 278 260 273 298 294 286 281 280 285 282 290 313 116 162 161 169 169 178 199 212 228 232 236 237 247 249 258 268 280 292 301 309 316 322 327 330 331 331 331 330 332 336 339 335 332 324 324 325 320 322 319 316 318 314 323 325 326 329 331 328 324 323 320 318 311 308
264 262 268 278 284 279 275 273 273 275 278 282 277 275 274 271 267 268 274 276 270 270 276 277 276 276 282 280 282 303 59 75 93 109 133 152 184 186 223 233 242 246 240 243 247 248 253 258 267 272 280 286 290 296 303 308 312 319 322 323 328 332 333 340 332 330 327 327 326 328 327 318 316 317 322 326 325 330 329 324 319 316 315 313 310 310
256 264 310 64 284 270 264 266 269 273 275 267 265 266 264 264 265 269 275 272 275 272 264 265 268 270 268 286 67 77 62 93 93 128 112 152 167 226 244 265 263 260 256 255 256 257 261 263 266 267 265 267 275 280 285 286 287 292 293 296 303 309 320 330 324 321 323 320 322 325 323 321 319 324 321 315 318 317 325 321 318 314 311 307 304 305
279 270 288 289 278 262 252 267 272 276 275 273 273 263 258 261 268 265 261 264 263 264 266 270 267 270 322 73 54 87 82 65 49 27 20 7 341 315 300 301 301 291 280 268 262 260 256 255 257 260 264 268 268 266 265 265 266 270 273 279 287 291 303 305 300 306 306 311 314 318 319 317 317 315 312 313 312 316 312 308 304 302 303 305 308 308
254 274 280 277 275 253 261 272 285 308 295 274 247 243 249 254 253 258 256 256 253 263 269 263 272 359 88 317 41 100 77 15 23 352 345 329 319 314 300 296 297 295 294 288 273 262 255 253 255 257 259 261 260 261 256 256 256 255 255 260 261 267 271 277 283 288 292 296 301 302 305 307 307 301 293 283 283 287 295 303 310 308 297 291 296 302
241 246 263 263 264 276 278 290 100 271 263 253 305 134 226 260 271 273 270 270 273 264 281 320 254 182 202 147 118 87 33 4 344 329 322 307 309 309 309 305 301 301 297 287 278 270 260 253 248 248 247 248 248 247 249 244 248 250 252 254 255 252 252 258 265 269 276 278 276 283 287 295 295 295 294 299 298 295 291 298 298 298 297 295 293 289
245 247 254 253 261 268 275 277 268 246 244 348 105 263 266 293 282 254 265 270 272 273 275 273 285 284 288 72 76 23 356 334 328 312 309 297 289 270 279 289 294 302 304 299 291 279 270 261 256 255 257 256 254 252 246 244 239 244 250 252 255 256 259 260 268 271 275 280 279 279 279 279 280 280 283 288 293 299 301 303 304 304 301 289 283 287
250 249 255 254 253 270 258 247 249 249 129 190 247 248 268 237 250 260 268 266 269 275 280 285 286 277 107 48 16 357 339 315 308 283 281 284 274 265 257 287 313 318 320 323 322 318 309 293 276 269 266 265 262 256 254 260 266 269 275 283 284 281 276 274 273 272 275 277 275 274 268 273 275 273 264 264 274 284 287 289 293 299 299 290 284 282
241 250 249 264 241 254 250 247 251 289 287 274 274 270 267 265 280 285 293 301 35 282 279 252 256 108 56 3 357 336 313 293 293 288 271 286 308 275 271 310 320 323 320 323 324 320 319 314 304 293 289 290 297 311 316 318 329 337 331 322 310 303 293 286 279 275 275 276 276 277 277 276 275 274 267 256 267 271 274 279 285 287 286 282 281 283
236 232 241 257 251 250 262 266 269 267 265 279 309 16 29 46 29 10 330 296 303 21 351 244 133 70 8 336 325 322 292 296 303 298 313 326 350 336 314 295 313 318 321 320 321 317 317 327 349 357 357 345 343 345 8 23 18 352 325 308 302 298 293 290 284 280 283 281 279 280 277 275 275 275 269 264 266 268 265 270 275 278 277 273 275 277
248 250 248 239 260 261 254 258 256 258 264 109 237 13 69 67 22 350 305 288 121 171 24 81 55 359 346 318 314 312 308 287 284 296 313 340 328 323 313 307 311 317 322 323 325 338 357 357 350 339 338 343 344 1 14 357 350 337 316 305 299 295 293 292 292 294 294 291 287 287 289 288 285 279 275 270 270 273 277 278 275 277 278 268 266 271
159 216 206 234 240 237 249 248 253 254 273 60 110 59 81 83 13 350 290 289 96 187 156 160 328 323 304 301 296 294 276 282 286 303 326 315 314 310 310 309 312 319 319 336 20 14 355 355 352 344 346 346 341 345 343 338 329 325 318 311 306 302 299 299 301 304 301 296 294 297 297 295 290 284 282 282 283 281 280 280 276 272 269 265 266 274
190 219 214 227 231 239 239 252 261 261 264 272 273 296 331 109 14 275 259 312 179 207 197 225 246 264 278 282 280 279 269 280 293 297 301 304 304 304 306 310 309 318 345 26 19 9 360 351 346 334 327 327 334 340 341 340 331 325 324 317 309 304 305 307 309 307 303 303 303 301 298 295 292 292 289 286 288 286 280 274 274 277 274 273 271 270
227 198 257 242 242 243 246 254 253 269 255 238 254 238 164 178 244 250 328 114 193 231 242 224 242 251 259 260 263 264 275 280 284 287 288 296 301 302 304 308 331 4 17 6 12 3 351 340 330 325 329 337 342 340 338 337 325 317 316 312 307 313 315 316 314 312 308 302 298 297 295 293 291 289 286 284 282 280 278 276 274 273 275 273 272 273
250 227 226 237 246 248 246 254 257 259 42 87 126 87 210 222 240 277 341 242 247 262 285 276 262 273 264 273 270 275 284 287 287 291 296 295 300 302 310 345 17 355 348 346 343 354 353 334 329 329 329 336 338 337 339 336 322 316 315 309 313 318 319 320 316 308 300 295 295 295 294 293 291 290 287 284 282 279 278 278 275 272 271 271 272 272
246 262 257 255 235 260 255 247 233 279 274 186 181 243 252 240 266 285 295 293 295 300 294 289 285 290 293 278 280 284 286 290 290 292 295 298 298 314 343 353 350 347 335 338 350 350 1 333 327 320 323 331 334 337 339 339 324 318 317 311 319 318 319 319 313 308 302 301 301 302 300 299 298 295 292 289 288 284 279 277 274 271 264 264 266 267
185 229 225 259 244 264 267 272 276 301 326 176 199 233 255 274 278 281 279 276 279 278 284 284 291 295 293 291 284 282 284 282 287 293 296 302 318 329 332 330 337 334 338 344 347 357 357 336 322 321 316 326 337 333 336 336 323 315 310 312 321 320 321 316 314 311 305 305 305 303 302 301 298 296 294 291 288 286 282 277 277 273 265 260 252 258
221 246 237 248 259 263 265 267 276 276 266 246 229 233 248 259 267 273 270 268 260 276 288 289 292 291 293 287 270 271 271 283 290 296 303 312 315 312 318 322 326 336 344 352 341 351 342 329 322 316 315 319 338 329 330 327 326 312 308 315 316 315 315 313 311 306 302 303 300 300 302 302 299 295 292 291 289 284 280 279 279 274 273 268 268 262
241 244 245 252 256 261 258 257 254 256 259 261 263 263 263 264 270 270 269 270 276 280 279 267 271 289 289 290 259 267 276 284 286 291 300 301 301 307 313 314 325 344 344 341 340 343 337 333 319 315 316 311 324 328 320 321 315 308 308 311 311 310 309 308 303 298 297 298 299 298 299 296 294 296 296 293 290 284 282 282 281 277 276 274 272 272
247 237 251 240 244 240 258 258 257 253 261 262 262 268 267 266 265 266 266 273 279 106 123 155 105 253 227 250 255 261 271 280 282 286 292 296 301 307 311 318 329 331 334 336 331 346 332 321 315 313 315 311 318 319 317 311 305 305 308 306 308 309 307 301 298 295 295 297 296 294 295 292 291 292 292 293 291 290 288 284 281 279 276 276 278 279
266 253 251 229 248 253 257 262 265 268 265 263 260 258 262 265 268 270 274 267 135 170 133 136 164 219 235 259 336 269 271 271 279 289 294 301 300 303 315 323 323 325 328 328 328 337 322 316 312 308 307 304 310 310 307 302 300 304 304 303 305 305 303 301 299 297 295 296 294 292 292 291 291 290 290 290 287 281 279 282 283 280 278 274 274 273
254 252 247 250 257 255 252 245 243 253 264 263 258 259 263 260 261 268 235 149 173 168 173 172 178 172 191 200 244 260 263 278 281 302 292 293 298 311 316 320 323 320 321 322 317 314 310 310 307 304 303 300 304 304 303 301 301 302 306 304 304 305 303 302 301 299 298 297 295 294 293 293 292 290 288 287 286 287 282 274 275 277 277 279 275 273
235 244 242 249 244 254 249 242 242 258 264 273 282 286 258 133 192 211 225 220 161 145 143 195 199 200 197 183 136 196 264 283 300 320 303 296 302 314 318 321 321 321 317 317 312 309 314 309 304 298 296 297 302 303 305 303 305 308 309 306 303 303 300 302 301 299 297 296 294 295 296 295 292 289 287 286 286 286 287 290 281 277 279 279 281 280